Regional Weather Roundup
Issued by NWS Charleston, WV

Home | Current Version | Previous Version | Text Only | Print | Product List | Glossary Off
Versions: 1 2 3 4 5 6 7 8 9 10 11 12 13 14 15 16 17 18 19 20 21 22 23 24 25 26 27 28 29 30 31 32 33 34 35 36 37 38 39 40 41 42 43 44 45 46 47 48 49 50

000
ASUS41 KRLX 180210
RWRRLX
West Virginia Regional Weather Roundup
National Weather Service Charleston WV
1000 PM EDT FRI APR 17 2015

Note: "fair" indicates few or no clouds below 12,000 feet with no
significant weather and/or obstructions to visibility.

WVZ003-180300-
Northern Panhandle of West Virginia

CITY           SKY/WX    TMP DP  RH WIND       PRES   REMARKS
WHEELING       MOCLDY    64  46  52 N5        30.04R
$$

WVZ009-180300-
Northwest West Virginia

CITY           SKY/WX    TMP DP  RH WIND       PRES   REMARKS
PARKERSBURG    MOCLDY    62  52  69 NW3       30.05R
$$

WVZ006-180300-
Western West Virginia

CITY           SKY/WX    TMP DP  RH WIND       PRES   REMARKS
HUNTINGTON     MOCLDY    67  54  63 CALM      30.02R
$$

WVZ015-180300-
West Central West Virginia

CITY           SKY/WX    TMP DP  RH WIND       PRES   REMARKS
CHARLESTON     CLOUDY    67  55  65 CALM      30.02R
$$

WVZ022-031-180300-
North Central West Virginia

CITY           SKY/WX    TMP DP  RH WIND       PRES   REMARKS
CLARKSBURG     MOCLDY    61  56  83 CALM      30.03R
MORGANTOWN     MOCLDY    62  53  72 E3        30.05R
$$

WVZ025-035-042-045-180300-
Southern West Virginia

CITY           SKY/WX    TMP DP  RH WIND       PRES   REMARKS
BECKLEY        CLOUDY    64  51  62 N3        30.07R
LOGAN            N/A     68  55  64 CALM      30.01R
BLUEFIELD      CLOUDY    66  49  54 N5        30.09R
LEWISBURG      CLOUDY    63  52  67 CALM      30.06R
$$

WVZ047-180300-
Northern Mountains of West Virginia

CITY           SKY/WX    TMP DP  RH WIND       PRES   REMARKS
ELKINS         FOG       51  50  96 CALM      30.08R VSB 1/4
$$

WVZ052-180300-
Eastern Panhandle of West Virginia

CITY           SKY/WX    TMP DP  RH WIND       PRES   REMARKS
MARTINSBURG    PTCLDY    66  52  60 N6        30.00R
PETERSBURG     MOCLDY    56  48  75 NW3       30.05R
$$


USA.gov is the U.S. government's official web portal to all federal, state and local government web resources and services.